• In Hungary
  • List of Countries
  • For 7 days
  • Water Temperature
  • Satellite Maps
  • Weather Map
  • News
  • Weather Widgets
  • user-avatar
    Login

    Hourly Weather Kostikov

    Today, 18 December, Monday

    Time Temperature Precipitation Wind Pressure Humidity
    00:00 +3°C° 0 mm 6 mps 753 mmHg 84%
    01:00 +3°C° 0.2 mm 6 mps 753 mmHg 84%
    02:00 +3°C° 0.2 mm 6 mps 753 mmHg 85%
    03:00 +3°C° 0 mm 6 mps 753 mmHg 85%
    04:00 +3°C° 0.2 mm 6 mps 752 mmHg 85%
    05:00 +3°C° 0.2 mm 6 mps 752 mmHg 86%
    06:00 +3°C° 0.2 mm 7 mps 752 mmHg 86%
    07:00 +4°C° 0.2 mm 7 mps 752 mmHg 87%
    08:00 +4°C° 0.2 mm 7 mps 752 mmHg 88%
    09:00 +4°C° 0.2 mm 7 mps 752 mmHg 88%
    10:00 +4°C° 0.1 mm 7 mps 751 mmHg 86%
    11:00 +5°C° 0.1 mm 7 mps 751 mmHg 84%
    12:00 +6°C° 0.1 mm 7 mps 751 mmHg 83%
    13:00 +6°C° 0.2 mm 7 mps 751 mmHg 81%
    14:00 +6°C° 0.2 mm 7 mps 751 mmHg 80%
    15:00 +6°C° 0.2 mm 7 mps 751 mmHg 79%
    16:00 +6°C° 0 mm 7 mps 751 mmHg 79%
    17:00 +6°C° 0 mm 7 mps 751 mmHg 79%
    18:00 +8°C° 0 mm 7 mps 752 mmHg 79%
    19:00 +7°C° 0.2 mm 6 mps 752 mmHg 83%
    20:00 +7°C° 0.2 mm 5 mps 752 mmHg 87%
    21:00 +7°C° 0.2 mm 5 mps 752 mmHg 91%
    22:00 +7°C° 0.1 mm 4 mps 752 mmHg 90%
    23:00 +7°C° 0.1 mm 3 mps 752 mmHg 90%

    Tomorrow, 19 December, Tuesday

    Time Temperature Precipitation Wind Pressure Humidity
    00:00 +7°C° 0.1 mm 3 mps 753 mmHg 89%
    01:00 +7°C° 0.4 mm 2 mps 753 mmHg 89%
    02:00 +7°C° 0.4 mm 2 mps 753 mmHg 89%
    03:00 +6°C° 0.4 mm 2 mps 753 mmHg 90%
    04:00 +6°C° 0.5 mm 2 mps 753 mmHg 90%
    05:00 +6°C° 0.5 mm 2 mps 753 mmHg 90%
    06:00 +7°C° 0.5 mm 1 mps 753 mmHg 90%
    07:00 +6°C° 0.9 mm 1 mps 754 mmHg 90%
    08:00 +6°C° 0.9 mm 1 mps 754 mmHg 91%
    09:00 +6°C° 0.9 mm 1 mps 754 mmHg 91%
    10:00 +6°C° 0.6 mm 1 mps 754 mmHg 89%
    11:00 +6°C° 0.6 mm 1 mps 755 mmHg 86%
    12:00 +6°C° 0.6 mm 1 mps 755 mmHg 84%
    13:00 +5°C° 0.1 mm 2 mps 755 mmHg 81%
    14:00 +6°C° 0.1 mm 2 mps 755 mmHg 78%
    15:00 +6°C° 0.1 mm 2 mps 755 mmHg 75%
    16:00 +5°C° 0 mm 2 mps 755 mmHg 77%
    17:00 +4°C° 0 mm 2 mps 755 mmHg 79%
    18:00 +5°C° 0 mm 1 mps 756 mmHg 81%
    19:00 +4°C° 0 mm 1 mps 756 mmHg 81%
    20:00 +3°C° 0 mm 2 mps 756 mmHg 81%
    21:00 +3°C° 0 mm 2 mps 756 mmHg 81%
    22:00 +3°C° 0 mm 2 mps 757 mmHg 80%
    23:00 +3°C° 0 mm 2 mps 757 mmHg 79%

    Day after tomorrow, 20 December, Wednesday

    Time Temperature Precipitation Wind Pressure Humidity
    00:00 +3°C° 0 mm 2 mps 757 mmHg 78%
    01:00 +3°C° 0 mm 2 mps 757 mmHg 79%
    02:00 +4°C° 0 mm 1 mps 757 mmHg 79%
    03:00 +3°C° 0 mm 1 mps 758 mmHg 80%
    04:00 +3°C° 0 mm 1 mps 758 mmHg 81%
    05:00 +3°C° 0 mm 1 mps 758 mmHg 82%
    06:00 +3°C° 0 mm 1 mps 758 mmHg 83%
    07:00 +3°C° 0 mm 1 mps 758 mmHg 83%
    08:00 +3°C° 0 mm 1 mps 759 mmHg 82%
    09:00 +3°C° 0 mm 1 mps 759 mmHg 82%
    10:00 +4°C° 0 mm 1 mps 760 mmHg 79%
    11:00 +4°C° 0 mm 1 mps 760 mmHg 75%
    12:00 +5°C° 0 mm 1 mps 760 mmHg 71%
    13:00 +5°C° 0 mm 1 mps 760 mmHg 70%
    14:00 +5°C° 0 mm 1 mps 760 mmHg 70%
    15:00 +5°C° 0 mm 1 mps 760 mmHg 69%
    16:00 +4°C° 0 mm 0 mps 760 mmHg 72%
    17:00 +3°C° 0 mm 0 mps 760 mmHg 74%
    18:00 +3°C° 0 mm 0 mps 761 mmHg 77%
    19:00 +4°C° 0 mm 1 mps 761 mmHg 78%
    20:00 +4°C° 0 mm 1 mps 761 mmHg 79%
    21:00 +4°C° 0 mm 1 mps 761 mmHg 81%
    22:00 +4°C° 0.1 mm 1 mps 761 mmHg 82%
    23:00 +4°C° 0.1 mm 1 mps 761 mmHg 84%

    21 December, Thursday

    Time Temperature Precipitation Wind Pressure Humidity
    00:00 +3°C° 0.1 mm 1 mps 761 mmHg 86%
    01:00 +3°C° 0.2 mm 1 mps 761 mmHg 87%
    02:00 +2°C° 0.2 mm 2 mps 761 mmHg 88%
    03:00 +2°C° 0.2 mm 2 mps 760 mmHg 89%
    04:00 +2°C° 0.6 mm 2 mps 760 mmHg 89%
    05:00 +2°C° 0.6 mm 2 mps 760 mmHg 89%
    06:00 +2°C° 0.6 mm 2 mps 760 mmHg 90%
    07:00 +2°C° 0.8 mm 2 mps 760 mmHg 90%
    08:00 +2°C° 0.8 mm 2 mps 760 mmHg 90%
    09:00 +2°C° 0.8 mm 2 mps 760 mmHg 90%
    10:00 +2°C° 0.6 mm 2 mps 760 mmHg 89%
    11:00 +2°C° 0.6 mm 2 mps 760 mmHg 88%
    12:00 +2°C° 0.6 mm 3 mps 760 mmHg 87%
    13:00 +2°C° 0 mm 3 mps 760 mmHg 85%
    14:00 +3°C° 0 mm 2 mps 760 mmHg 83%
    15:00 +3°C° 0 mm 2 mps 760 mmHg 81%
    16:00 +2°C° 0 mm 2 mps 760 mmHg 83%
    17:00 +1°C° 0 mm 2 mps 760 mmHg 84%
    18:00 +1°C° 0 mm 2 mps 760 mmHg 86%
    19:00 -1°C° 0 mm 2 mps 760 mmHg 87%
    20:00 +1°C° 0 mm 1 mps 760 mmHg 87%
    21:00 +1°C° 0 mm 1 mps 760 mmHg 87%
    22:00 0°C° 0 mm 1 mps 760 mmHg 87%
    23:00 0°C° 0 mm 1 mps 759 mmHg 87%

    22 December, Friday

    Time Temperature Precipitation Wind Pressure Humidity
    00:00 0°C° 0 mm 1 mps 759 mmHg 87%
    01:00 0°C° 0 mm 1 mps 759 mmHg 87%
    02:00 0°C° 0 mm 1 mps 759 mmHg 87%
    03:00 0°C° 0 mm 1 mps 758 mmHg 86%
    04:00 -1°C° 0 mm 1 mps 758 mmHg 86%
    05:00 -1°C° 0 mm 1 mps 758 mmHg 85%
    06:00 -1°C° 0 mm 1 mps 758 mmHg 84%
    07:00 -1°C° 0 mm 1 mps 757 mmHg 83%
    08:00 -1°C° 0 mm 1 mps 757 mmHg 82%
    09:00 -1°C° 0 mm 1 mps 757 mmHg 80%
    10:00 0°C° 0 mm 1 mps 756 mmHg 76%
    11:00 0°C° 0 mm 1 mps 756 mmHg 71%
    12:00 -1°C° 0 mm 2 mps 756 mmHg 66%
    13:00 -1°C° 0 mm 2 mps 755 mmHg 65%
    14:00 -1°C° 0 mm 2 mps 755 mmHg 63%
    15:00 -1°C° 0 mm 2 mps 755 mmHg 61%
    16:00 -2°C° 0 mm 2 mps 755 mmHg 64%
    17:00 0°C° 0 mm 1 mps 755 mmHg 66%
    18:00 -1°C° 0 mm 1 mps 755 mmHg 69%
    19:00 -1°C° 0 mm 1 mps 755 mmHg 69%
    20:00 -1°C° 0 mm 1 mps 755 mmHg 69%
    21:00 -3°C° 0 mm 2 mps 754 mmHg 70%
    22:00 -3°C° 0 mm 2 mps 754 mmHg 71%
    23:00 -3°C° 0 mm 2 mps 754 mmHg 72%

    23 December, Saturday

    Time Temperature Precipitation Wind Pressure Humidity
    00:00 -3°C° 0 mm 2 mps 754 mmHg 73%
    01:00 -3°C° 0 mm 2 mps 753 mmHg 74%
    02:00 -3°C° 0 mm 2 mps 753 mmHg 75%
    03:00 -4°C° 0 mm 3 mps 753 mmHg 76%
    04:00 -4°C° 0 mm 3 mps 752 mmHg 76%
    05:00 -4°C° 0 mm 3 mps 751 mmHg 77%
    06:00 -4°C° 0 mm 4 mps 751 mmHg 77%
    07:00 -4°C° 0.1 mm 4 mps 751 mmHg 80%
    08:00 -4°C° 0.1 mm 5 mps 750 mmHg 82%
    09:00 -4°C° 0.1 mm 5 mps 750 mmHg 84%
    10:00 -2°C° 0.1 mm 5 mps 750 mmHg 84%
    11:00 -1°C° 0.1 mm 5 mps 749 mmHg 83%
    12:00 -1°C° 0.1 mm 5 mps 749 mmHg 83%
    13:00 -1°C° 0.1 mm 5 mps 749 mmHg 82%
    14:00 0°C° 0.1 mm 5 mps 749 mmHg 82%
    15:00 0°C° 0.1 mm 5 mps 748 mmHg 81%
    16:00 -1°C° 0 mm 5 mps 749 mmHg 83%
    17:00 -1°C° 0 mm 5 mps 749 mmHg 84%
    18:00 -2°C° 0 mm 4 mps 749 mmHg 85%
    19:00 -2°C° 0 mm 4 mps 749 mmHg 85%
    20:00 -2°C° 0 mm 4 mps 749 mmHg 85%
    21:00 -2°C° 0 mm 5 mps 750 mmHg 85%
    22:00 -3°C° 0 mm 4 mps 750 mmHg 85%
    23:00 -3°C° 0 mm 4 mps 750 mmHg 86%
    Show more